SCP
0 -0 -0 -0 -0 0 0 0 0 0 0 0 0 0 0 0 0 0 0 0 0 0
0 0 -0 -0 0 0 0 0 0 0 0 0 0 0 0 0 0 0 0 0 0 0
-0 -0 -0 0 0 0 0 0 0 0 0 0 0 0 0 0 0 0 0 0 0 0
-0 -0 -0 0 1 1 1 1 1 1 1 0 0 0 0 0 0 0 0 0 0 0
-1 -0 -0 0 1 0 1 1 1 1 1 1 0 0 0 0 0 0 0 0 0 0
-0 0 1 1 2 1 1 2 1 2 1 1 0 0 0 0 0 0 0 0 0 0
0 1 1 3 2 2 1 1 1 1 0 1 0 0 0 0 0 0 0 0 0 0
1 1 2 2 2 1 2 1 1 0 0 0 0 0 0 0 0 0 0 0 0 0
1 1 1 2 2 2 2 2 0 0 0 0 0 0 0 0 0 0 0 0 0 0
1 2 2 2 2 2 2 1 1 0 0 0 0 0 0 0 0 0 0 0 0 1
1 1 2 2 2 2 1 1 1 1 1 0 0 0 0 0 0 0 0 0 1 0
1 1 2 3 2 2 1 1 0 0 0 0 0 0 0 0 0 0 0 1 1 0
1 2 2 1 2 2 1 1 1 1 0 0 0 0 0 0 0 1 1 1 1 0
2 4 3 3 3 2 0 1 0 1 1 0 0 0 0 0 1 0 1 1 0 1
Wind_Speed_500mb
61 48 42 38 31 29 27 26 29 27 25 22 21 19 17 12 11 13 11 13 14 12
67 62 46 42 43 33 33 27 29 28 27 24 22 21 19 14 17 17 15 17 20 19
71 69 65 57 54 44 38 35 30 28 24 23 23 20 19 17 18 20 17 17 21 23
77 74 71 66 60 47 46 39 37 32 25 24 24 23 24 23 22 21 22 21 24 26
86 83 72 72 67 61 52 44 37 29 25 20 27 32 29 27 23 25 24 25 26 26
85 88 85 78 80 73 62 46 46 35 22 9 45 45 40 36 32 30 26 25 26 28
76 77 75 82 84 79 69 59 52 47 47 40 59 55 49 44 42 36 30 29 30 30
52 53 55 71 85 85 83 75 70 63 72 72 55 53 54 52 47 38 32 28 30 31
49 52 54 67 81 80 90 98 95 93 91 83 72 72 62 54 41 36 34 32 34 38
49 51 54 55 63 75 92 105 105 103 85 78 63 66 59 52 47 45 44 42 44 46
41 44 45 47 52 56 73 100 104 98 88 78 66 62 59 48 50 52 52 50 51 50
37 37 41 43 46 50 57 75 98 83 77 76 64 68 65 53 50 58 64 63 56 54
34 37 40 39 42 46 55 61 75 74 69 53 61 63 61 50 51 57 63 54 60 54
36 39 43 33 40 47 47 55 71 69 47 52 60 60 59 54 60 52 51 48 39 29
Wind_Direction_500mb
231 225 227 228 218 223 223 226 225 227 234 233 234 241 251 238 232 248 259 261 255 251
231 227 221 218 229 227 225 219 218 230 236 234 233 241 241 228 248 244 257 261 267 267
229 231 228 230 229 222 233 219 218 226 237 233 239 248 255 249 259 251 258 265 264 266
228 229 231 232 235 231 234 234 231 231 233 240 254 255 255 251 242 253 263 263 267 263
232 233 229 231 233 228 226 224 222 226 227 250 262 263 262 262 247 250 253 258 257 264
231 232 232 232 231 232 227 222 216 191 211 293 288 267 261 261 249 248 247 252 258 262
228 229 231 228 235 233 229 223 205 194 214 276 250 260 259 260 258 250 247 251 256 263
223 223 223 231 234 234 228 222 214 212 232 255 252 238 250 250 251 248 250 258 267 276
220 224 226 234 238 231 224 224 225 232 246 255 263 249 238 242 243 238 249 258 270 282
214 225 233 237 237 235 228 224 229 233 233 244 266 226 236 241 245 247 254 264 274 285
205 218 228 232 236 230 230 231 232 232 231 248 257 229 236 242 249 254 257 262 275 284
202 209 218 225 234 234 229 230 231 230 237 247 227 224 237 248 252 258 258 262 278 284
206 210 213 212 227 229 232 235 226 224 235 243 231 230 242 248 253 243 248 270 286 282
207 209 213 201 218 228 232 224 220 226 237 246 233 234 245 250 249 244 253 272 270 275
Wind_Speed_850mb
61 48 42 38 31 29 27 26 29 27 25 22 21 19 17 12 11 13 11 13 14 12
67 62 46 42 43 33 33 27 29 28 27 24 22 21 19 14 17 17 15 17 20 19
71 69 65 57 54 44 38 35 30 28 24 23 23 20 19 17 18 20 17 17 21 23
77 74 71 66 60 47 46 39 37 32 25 24 24 23 24 23 22 21 22 21 24 26
86 83 72 72 67 61 52 44 37 29 25 20 27 32 29 27 23 25 24 25 26 26
85 88 85 78 80 73 62 46 46 35 22 9 45 45 40 36 32 30 26 25 26 28
76 77 75 82 84 79 69 59 52 47 47 40 59 55 49 44 42 36 30 29 30 30
52 53 55 71 85 85 83 75 70 63 72 72 55 53 54 52 47 38 32 28 30 31
49 52 54 67 81 80 90 98 95 93 91 83 72 72 62 54 41 36 34 32 34 38
49 51 54 55 63 75 92 105 105 103 85 78 63 66 59 52 47 45 44 42 44 46
41 44 45 47 52 56 73 100 104 98 88 78 66 62 59 48 50 52 52 50 51 50
37 37 41 43 46 50 57 75 98 83 77 76 64 68 65 53 50 58 64 63 56 54
34 37 40 39 42 46 55 61 75 74 69 53 61 63 61 50 51 57 63 54 60 54
36 39 43 33 40 47 47 55 71 69 47 52 60 60 59 54 60 52 51 48 39 29
Wind_Direction_850mb
231 225 227 228 218 223 223 226 225 227 234 233 234 241 251 238 232 248 259 261 255 251
231 227 221 218 229 227 225 219 218 230 236 234 233 241 241 228 248 244 257 261 267 267
229 231 228 230 229 222 233 219 218 226 237 233 239 248 255 249 259 251 258 265 264 266
228 229 231 232 235 231 234 234 231 231 233 240 254 255 255 251 242 253 263 263 267 263
232 233 229 231 233 228 226 224 222 226 227 250 262 263 262 262 247 250 253 258 257 264
231 232 232 232 231 232 227 222 216 191 211 293 288 267 261 261 249 248 247 252 258 262
228 229 231 228 235 233 229 223 205 194 214 276 250 260 259 260 258 250 247 251 256 263
223 223 223 231 234 234 228 222 214 212 232 255 252 238 250 250 251 248 250 258 267 276
220 224 226 234 238 231 224 224 225 232 246 255 263 249 238 242 243 238 249 258 270 282
214 225 233 237 237 235 228 224 229 233 233 244 266 226 236 241 245 247 254 264 274 285
205 218 228 232 236 230 230 231 232 232 231 248 257 229 236 242 249 254 257 262 275 284
202 209 218 225 234 234 229 230 231 230 237 247 227 224 237 248 252 258 258 262 278 284
206 210 213 212 227 229 232 235 226 224 235 243 231 230 242 248 253 243 248 270 286 282
207 209 213 201 218 228 232 224 220 226 237 246 233 234 245 250 249 244 253 272 270 275